CST,Max TemperatureF,Mean TemperatureF,Min TemperatureF,Max Dew PointF,MeanDew PointF,Min DewpointF,Max Humidity, Mean Humidity, Min Humidity, Max Sea Level PressureIn, Mean Sea Level PressureIn, Min Sea Level PressureIn, Max VisibilityMiles, Mean VisibilityMiles, Min VisibilityMiles, Max Wind SpeedMPH, Mean Wind SpeedMPH, Max Gust SpeedMPH,PrecipitationIn, CloudCover, Events, WindDirDegrees
2014-1-1,3,-6,-15,-8,-11,-21,78,70,58,30.37,30.31,30.27,10,10,10,10,4,,0.00,7,,19
2014-1-2,4,-8,-22,-8,-13,-28,85,72,55,30.31,30.28,30.25,10,10,10,13,6,,0.00,2,,5
2014-1-3,14,-6,-25,10,-7,-30,83,76,66,30.29,29.95,29.54,10,10,7,24,8,31,0.00,5,Snow,187
2014-1-4,23,12,0,22,10,-3,96,82,70,30.03,29.72,29.47,10,9,2,22,13,29,0.00,5,Snow,281
2014-1-5,0,-8,-16,-4,-13,-24,83,73,63,30.14,30.06,29.94,10,10,10,16,8,20,0.00,0,,321
2014-1-6,-16,-21,-26,-23,-29,-35,73,67,56,29.97,29.93,29.90,10,10,4,18,13,24,0.00,4,,289
2014-1-7,-4,-14,-24,-14,-22,-30,78,73,65,30.11,29.98,29.89,10,10,7,18,12,25,0.00,0,,267
2014-1-8,3,-9,-21,-9,-17,-26,83,74,57,30.38,30.25,30.11,10,10,10,9,5,,0.00,0,Snow,286
2014-1-9,13,-7,-27,13,-11,-34,95,73,55,30.38,30.22,30.01,10,10,4,12,4,,0.00,3,,174
2014-1-10,27,20,12,28,20,11,100,97,93,30.00,29.75,29.39,7,2,0,8,5,,0.08,8,Fog-Snow,156
2014-1-11,27,26,24,27,25,23,99,94,88,29.60,29.43,29.34,10,8,2,15,6,22,0.08,8,Snow,295
2014-1-12,33,27,21,28,25,20,97,89,77,29.64,29.51,29.42,10,8,4,18,11,22,0.00,4,,207
2014-1-13,32,27,22,29,23,15,96,81,67,29.61,29.50,29.42,10,10,10,18,8,24,0.00,7,,274
2014-1-14,21,16,12,19,15,8,94,87,74,29.82,29.63,29.52,10,4,0,28,11,33,0.03,8,Snow,32
2014-1-15,13,8,4,8,4,-1,89,79,74,29.93,29.80,29.47,10,9,2,21,13,26,0.00,7,Snow,267
2014-1-16,26,17,8,24,14,4,99,90,81,29.58,29.41,29.31,10,6,0,18,11,24,0.01,8,Snow,244
2014-1-17,18,10,1,14,9,0,91,84,75,29.85,29.73,29.58,10,7,2,17,10,24,0.04,8,Snow,335
2014-1-18,12,2,-7,10,4,-11,94,89,83,29.79,29.75,29.59,10,8,0,13,3,,0.00,6,Fog-Snow,124
2014-1-19,26,19,12,25,19,11,97,90,86,29.59,29.45,29.38,10,8,2,23,13,29,0.00,8,Snow,288
2014-1-20,15,6,-4,12,-2,-10,89,74,60,30.17,29.91,29.59,10,10,7,21,9,20,0.00,4,Snow,358
2014-1-21,2,-4,-10,-10,-13,-17,81,70,54,30.22,30.14,29.98,10,10,4,13,7,18,0.00,5,Snow,289
2014-1-22,2,-2,-5,-5,-7,-12,84,77,61,30.06,29.87,29.76,10,5,2,18,9,25,0.00,7,Snow,283
2014-1-23,4,-5,-14,-6,-11,-21,80,71,56,30.42,30.31,30.07,10,10,4,20,13,26,0.00,1,,311
2014-1-24,22,4,-14,19,3,-20,93,82,65,30.16,29.58,29.25,10,6,1,25,14,30,0.01,7,Snow,242
2014-1-25,21,6,-8,15,-7,-16,79,67,56,29.64,29.51,29.25,10,7,1,28,16,33,0.01,5,Snow,309
2014-1-26,6,0,-7,1,-5,-14,85,78,67,29.66,29.39,29.19,10,5,1,21,7,31,0.00,7,Snow,250
2014-1-27,-3,-10,-17,-10,-21,-25,78,65,53,30.15,30.00,29.68,10,8,2,21,15,29,0.04,1,Snow,288
2014-1-28,-5,-14,-23,-15,-21,-28,79,70,60,30.14,30.03,29.88,10,10,7,21,13,28,0.00,1,,263
2014-1-29,18,4,-9,9,-6,-15,77,64,50,29.88,29.80,29.61,10,10,10,23,16,32,0.03,1,,240
2014-1-30,23,12,0,21,12,-6,93,79,65,29.81,29.57,29.42,10,7,0,16,12,23,0.20,5,Snow,233
2014-1-31,1,-7,-15,-4,-12,-19,87,73,58,30.02,29.95,29.83,10,10,10,13,8,18,0.00,0,,269